Regional Weather Roundup
Issued by NWS

Home | Current Version | Previous Version | Text Only | Print | Product List | Glossary On
Versions: 1 2 3 4 5 6 7 8 9 10 11 12 13 14 15 16 17 18 19 20 21 22 23 24 25 26 27 28 29 30 31 32 33 34 35 36 37 38 39 40 41 42 43 44 45 46 47 48 49 50
000
ASUS43 KLSX 230907
RWRMO

WEATHER SUMMARY FOR MISSOURI
NATIONAL WEATHER SERVICE SPRINGFIELD MO
400 AM CDT SAT SEP 23 2017

NOTE: "FAIR" INDICATES FEW OR NO CLOUDS BELOW 12,000 FEET WITH NO
       SIGNIFICANT WEATHER AND/OR OBSTRUCTIONS TO VISIBILITY.
       CURRENT SKY AND/OR WEATHER CONDITIONS ARE NOT AVAILABLE FOR
       CHILLICOTHE AND FARMINGTON.

MOZ001>031-035>038-043-044-053-054-231000-
...NORTHERN AND WESTERN MISSOURI...

CITY           SKY/WX    TMP DP  RH WIND       PRES   REMARKS
KANSAS CTY INT CLEAR     69  67  93 S8        29.97R
KANSAS C DTWN  CLEAR     74  68  81 S5        29.96R
LEE`S SUMMIT   CLEAR     73  69  87 S8        29.99R
ST JOSEPH      CLEAR     70  69  97 S6        29.95S
CHILLICOTHE      N/A     69  68  96 CALM      29.98S
KIRKSVILLE     CLEAR     69  64  84 S5        30.00S

$$
MOZ066>068-077>081-088>096-101>105-231000-
...SOUTHWEST MISSOURI...

CITY           SKY/WX    TMP DP  RH WIND       PRES   REMARKS
SPRINGFIELD    CLEAR     70  67  90 SE8       30.01R
JOPLIN         CLEAR     72  68  87 S7        29.98S
BRANSON          N/A     72  64  78 CALM      30.03R

$$
MOZ032>034-039>042-045>050-055>058-069>072-231000-
...CENTRAL MISSOURI...

CITY           SKY/WX    TMP DP  RH WIND       PRES   REMARKS
COLUMBIA       CLEAR     71  66  84 E6        30.00S
JEFFERSON CITY CLEAR     67  64  90 SE5       29.99S
ROLLA          CLEAR     70  64  81 SE7       30.03S
SEDALIA        CLEAR     71  68  90 S7        30.00S
WHITEMAN AFB   CLEAR     70  70 100 S5        29.97S
WARRENSBURG    CLEAR     70  66  88 SE5       29.98R
OSAGE BEACH    CLEAR     69  66  90 SE3       30.01S

$$
MOZ051-052-059>065-231000-
...EAST CENTRAL MISSOURI...

CITY           SKY/WX    TMP DP  RH WIND       PRES   REMARKS
ST LOUIS INTL  CLEAR     74  65  73 CALM      30.02S
SPIRIT OF STL  CLEAR     66  66 100 CALM      30.00S
ST CHARLES     CLEAR     68  66  93 CALM      30.00S

$$
MOZ072>076-082>087-097>100-106>115-231000-
...SOUTH CENTRAL AND SOUTHEAST MISSOURI...

CITY           SKY/WX    TMP DP  RH WIND       PRES   REMARKS
CAPE GIRARDEAU FOG       64  63  96 CALM      30.01R VSB 1/4
FARMINGTON     CLEAR     64  63  96 CALM      30.04S
POPLAR BLUFF   CLEAR     67  66  97 CALM      30.00S
WEST PLAINS    CLEAR     65  63  93 CALM      30.04S

$$


USA.gov is the U.S. government's official web portal to all federal, state and local government web resources and services.